Main page
Satellite images Climate Cyclones Lightning AirportsFAQ Languages Contact Newsletter About
Weather : Europe Africa North America South America Asia Australia-Oceania Others

macau-cn, Macau, Macau International Airport

45005

latitude: , longitude: China, elevation: 22-10N m


METAR: VMMC 212317Z 26005KT 6000 FEW020 28/26 Q0999 TEMPO 4000 BR